sat.trackr.live / text

‹ back to catalog

KUIPER-00254

NORAD 68585 · 2026-072N

PAYLOAD ACTIVE UNKNOWN

§ Identity

Operator
Country
US
Launch date
2026-04-04
Launch site
AFETR
Launch vehicle
Mass (kg)
RCS (m²)

External: N2YO · Heavens-Above · Gunter

§ Orbital elements

Epoch: 2026-09-19T23:31:01.016832Z

Period
97.30 min
Inclination
51.9025°
Eccentricity
0.0001306
Mean motion
14.79930887 rev/d
Perigee alt
628.6 km
Apogee alt
630.5 km
Semi-major
7,007.7 km
B*
2.6475e-4
RAAN
126.5123°
Arg perigee
79.3925°
Mean anomaly
280.7184°
Rev number
2,529

§ Raw data

KUIPER-002541 68585U 26072N   26262.97987288  .00001797  00000+0  26475-3 0  99952 68585  51.9025 126.5123 0001306  79.3925 280.7184 14.79930887 25295

JSON: /api/v1/satellites/68585 · /tle

For live sub-satellite position, see the globe view (requires WebGL).

§ Visibility from observer

Set your observer location to see the next 7 days of passes ≥ 10°. The values pass through the URL so the page stays shareable.

No JS? Fill the form by hand. The geolocation button needs JavaScript.